{"data":{"norad_id":52337,"intl_designator":"2022-045G","name":"STARLINK-3797","alt_names":[],"object_type":"PAYLOAD","status":"ACTIVE","operator":null,"country":"US","launch_date":"2022-04-29","launch_site_code":"AFETR","launch_vehicle":null,"mission":null,"orbit_class":"UNKNOWN","rcs_meters":null,"size_class":null,"mass_kg":null,"dimensions":null,"purposes":["comms"],"wikipedia_slug":null,"has_3d_model":false,"image_url":null,"decayed_at":null,"tle_current":{"epoch":"2026-09-20T00:00:02.998944Z","epoch_age_seconds":102877,"freshness":"FRESH","line1":"1 52337U 22045G   26263.00003471 -.00002389  00000+0 -57615-4 0  9998","line2":"2 52337  53.1596  53.8385 0000773  84.9967  38.4906 15.35403893  5616","mean_motion":15.35403893,"eccentricity":7.73e-5,"inclination_deg":53.1596,"raan_deg":53.8385,"arg_perigee_deg":84.9967,"mean_anomaly_deg":38.4906,"bstar":-5.7615e-5,"rev_number":561,"period_min":93.786397609453,"perigee_km":459.19251807649,"apogee_km":460.24965093635,"semimajor_km":6837.8580845064,"source":"CELESTRAK","updated_at":"2026-09-20T09:00:40.022165Z"}}}